Home   Weather   Rotterdam   Past weeks

Flag for Netherlands Past Weather in Rotterdam, Netherlands — Yesterday and Last 2 Weeks

Now
50 °F

Scattered clouds.


Feels Like: 46 °F
Forecast: 34 / 50 °F
Wind: 12 mph from North

Location: Rotterdam Zestienhoven Airport

Current Time: Apr 26, 2017 at 5:59:44 pm

Latest Report: Apr 26, 2017 at 5:25 pm


Visibility: N/A

Pressure: 29.95 "Hg

Humidity: 58%

Dew Point: 36 °F

Location of RotterdamLocation

Past Weather in Rotterdam — Graph

°F

Rotterdam Temperature Yesterday

Maximum temperature yesterday: 48 °F (at 11:55 am)
Minimum temperature yesterday: 39 °F (at 5:25 am)
Average temperature yesterday: 44 °F

High & Low Weather Summary for the Past Weeks

 TemperatureHumidityPressure
High55 °F (Apr 21, 10:55 am)100% (Apr 20, 12:55 am)30.63 "Hg (Apr 20, 12:55 am)
Low28 °F (Apr 20, 4:55 am)43% (Apr 20, 12:55 pm)29.71 "Hg (Apr 25, 2:25 am)
Average46 °F74%30.22 "Hg
* Reported Apr 19 8:55 am — Apr 26 4:55 pm, Rotterdam, Weather by CustomWeather, © 2017

Note: Actual official high and low records may vary slightly from our data, if they occured in-between our weather recording intervals... More about our weather records

Advertising

Rotterdam Weather History for the Previous 24 Hours

Scroll right to see more
 ConditionsComfort  
Time TempWeatherWind HumidityBarometerVisibility
4:55 pm
Wed, Apr 26
50 °FPassing clouds.10 mph58%29.95 "HgN/A
4:25 pm50 °FPassing clouds.12 mph58%29.95 "HgN/A
3:55 pm48 °FScattered clouds.8 mph58%29.95 "HgN/A
3:25 pm48 °FClear.10 mph58%29.95 "HgN/A
2:55 pm52 °FScattered clouds.10 mph58%29.92 "HgN/A
1:55 pm48 °FClear.12 mph62%29.92 "HgN/A
1:25 pm50 °FPassing clouds.10 mph62%29.92 "HgN/A
12:55 pm48 °FClear.7 mph66%29.92 "HgN/A
12:25 pm48 °FPassing clouds.3 mph66%29.92 "HgN/A
11:55 am45 °FPassing clouds.1 mph71%29.92 "HgN/A
11:25 am39 °FBroken clouds.9 mph87%29.92 "HgN/A
10:55 am48 °FBroken clouds.2 mph66%29.89 "HgN/A
10:25 am46 °FCool.1 mph66%29.89 "HgN/A
9:55 am45 °FQuite cool.3 mph76%29.89 "HgN/A
9:25 am43 °FClear.5 mph81%29.89 "HgN/A
8:55 am41 °FPassing clouds.8 mph87%29.89 "HgN/A
8:25 am39 °FBroken clouds.2 mph93%29.89 "HgN/A
7:55 am39 °FChilly.1 mph93%29.86 "HgN/A
7:25 am37 °FChilly.2 mph93%29.86 "HgN/A
6:55 am36 °FPassing clouds.3 mph93%29.86 "HgN/A
6:25 am36 °FPassing clouds.2 mph100%29.86 "HgN/A
5:55 am36 °FPassing clouds.3 mph93%29.86 "HgN/A
5:25 am37 °FPassing clouds.1 mph93%29.86 "HgN/A
4:55 am37 °FPartly cloudy.1 mph100%29.86 "Hg5 mi
4:25 am37 °FClear.3 mph93%29.86 "HgN/A
3:55 am37 °FPassing clouds.2 mph93%29.86 "HgN/A
3:25 am39 °FOvercast.1 mph93%29.83 "HgN/A
2:55 am39 °FPassing clouds.3 mph93%29.83 "HgN/A
2:25 am39 °FSprinkles. Partly cloudy.9 mph93%29.83 "Hg6 mi
1:55 am41 °FRain. Partly cloudy.8 mph87%29.83 "Hg4 mi
1:25 am41 °FPassing clouds.6 mph87%29.83 "HgN/A
12:55 am41 °FLight rain. Partly cloudy.7 mph87%29.83 "HgN/A
12:25 am41 °FLight rain. Partly cloudy.9 mph81%29.83 "HgN/A
11:55 pm
Tue, Apr 25
39 °FChilly.7 mph81%29.83 "HgN/A
11:25 pm41 °FPassing clouds.6 mph81%29.83 "HgN/A
10:55 pm39 °FPassing clouds.7 mph81%29.83 "HgN/A
10:25 pm41 °FPassing clouds.7 mph76%29.83 "HgN/A
9:55 pm41 °FPassing clouds.7 mph76%29.83 "HgN/A
9:25 pm41 °FPassing clouds.7 mph81%29.83 "HgN/A
8:55 pm41 °FScattered clouds.7 mph76%29.83 "HgN/A
8:25 pm43 °FPassing clouds.7 mph71%29.83 "HgN/A
7:55 pm45 °FPassing clouds.8 mph66%29.83 "HgN/A
7:25 pm46 °FScattered clouds.12 mph62%29.83 "HgN/A
6:55 pm46 °FBroken clouds.13 mph66%29.86 "HgN/A
6:25 pm46 °FClear.16 mph62%29.86 "HgN/A
5:55 pm45 °FBroken clouds.17 mph71%29.86 "HgN/A
5:25 pm48 °FScattered clouds.15 mph62%29.86 "HgN/A
Weather by CustomWeather, © 2017

See weather overviewHow to use our weather pages